Year,Month,Day,Hour,Minute,Value (Times are PST for temperature in C)
2014,12,19,00,00,6.60
2014,12,19,00,01,6.60
2014,12,19,00,02,6.60
2014,12,19,00,03,6.60
2014,12,19,00,04,6.60
2014,12,19,00,05,6.60
2014,12,19,00,06,6.50
2014,12,19,00,07,6.50
2014,12,19,00,08,6.50
2014,12,19,00,09,6.40
2014,12,19,00,10,6.40
2014,12,19,00,11,6.40
2014,12,19,00,12,6.40
2014,12,19,00,13,6.30
2014,12,19,00,14,6.30
2014,12,19,00,15,6.30
2014,12,19,00,16,6.30
2014,12,19,00,17,6.20
2014,12,19,00,18,6.20
2014,12,19,00,19,6.20
2014,12,19,00,20,6.20
2014,12,19,00,21,6.20
2014,12,19,00,22,6.20
2014,12,19,00,23,6.10
2014,12,19,00,24,6.10
2014,12,19,00,25,6.10
2014,12,19,00,26,6.10
2014,12,19,00,27,6.10
2014,12,19,00,28,6.10
2014,12,19,00,29,6.10
2014,12,19,00,30,6.10
2014,12,19,00,31,6.10
2014,12,19,00,32,6.10
2014,12,19,00,33,6.10
2014,12,19,00,34,6.10
2014,12,19,00,35,6.10
2014,12,19,00,36,6.10
2014,12,19,00,37,6.10
2014,12,19,00,38,6.10
2014,12,19,00,39,6.10
2014,12,19,00,40,6.10
2014,12,19,00,41,6.10
2014,12,19,00,42,6.10
2014,12,19,00,43,6.10
2014,12,19,00,44,6.10
2014,12,19,00,45,6.10
2014,12,19,00,46,6.10
2014,12,19,00,47,6.10
2014,12,19,00,48,6.10
2014,12,19,00,49,6.10
2014,12,19,00,50,6.10
2014,12,19,00,51,6.10
2014,12,19,00,52,6.10
2014,12,19,00,53,6.10
2014,12,19,00,54,6.10
2014,12,19,00,55,6.10
2014,12,19,00,56,6.10
2014,12,19,00,57,6.20
2014,12,19,00,58,6.20
2014,12,19,00,59,6.20
2014,12,19,01,00,6.20
2014,12,19,01,01,6.20
2014,12,19,01,02,6.20
2014,12,19,01,03,6.20
2014,12,19,01,04,6.20
2014,12,19,01,05,6.20
2014,12,19,01,06,6.20
2014,12,19,01,07,6.20
2014,12,19,01,08,6.20
2014,12,19,01,09,6.20
2014,12,19,01,10,6.20
2014,12,19,01,11,6.20
2014,12,19,01,12,6.20
2014,12,19,01,13,6.20
2014,12,19,01,14,6.30
2014,12,19,01,15,6.30
2014,12,19,01,16,6.30
2014,12,19,01,17,6.30
2014,12,19,01,18,6.30
2014,12,19,01,19,6.30
2014,12,19,01,20,6.30
2014,12,19,01,21,6.30
2014,12,19,01,22,6.30
2014,12,19,01,23,6.30
2014,12,19,01,24,6.30
2014,12,19,01,25,6.30
2014,12,19,01,26,6.30
2014,12,19,01,27,6.30
2014,12,19,01,28,6.40
2014,12,19,01,29,6.40
2014,12,19,01,30,6.40
2014,12,19,01,31,6.40
2014,12,19,01,32,6.40
2014,12,19,01,33,6.40
2014,12,19,01,34,6.40
2014,12,19,01,35,6.40
2014,12,19,01,36,6.40
2014,12,19,01,37,6.40
2014,12,19,01,38,6.40
2014,12,19,01,39,6.40
2014,12,19,01,40,6.40
2014,12,19,01,41,6.40
2014,12,19,01,42,6.50
2014,12,19,01,43,6.50
2014,12,19,01,44,6.50
2014,12,19,01,45,6.50
2014,12,19,01,46,6.50
2014,12,19,01,47,6.50
2014,12,19,01,48,6.50
2014,12,19,01,49,6.50
2014,12,19,01,50,6.50
2014,12,19,01,51,6.60
2014,12,19,01,52,6.60
2014,12,19,01,53,6.60
2014,12,19,01,54,6.60
2014,12,19,01,55,6.60
2014,12,19,01,56,6.60
2014,12,19,01,57,6.60
2014,12,19,01,58,6.60
2014,12,19,01,59,6.60
2014,12,19,02,00,6.60
2014,12,19,02,01,6.60
2014,12,19,02,02,6.60
2014,12,19,02,03,6.60
2014,12,19,02,04,6.60
2014,12,19,02,05,6.60
2014,12,19,02,06,6.60
2014,12,19,02,07,6.60
2014,12,19,02,08,6.60
2014,12,19,02,09,6.60
2014,12,19,02,10,6.60
2014,12,19,02,11,6.60
2014,12,19,02,12,6.70
2014,12,19,02,13,6.70
2014,12,19,02,14,6.70
2014,12,19,02,15,6.70
2014,12,19,02,16,6.70
2014,12,19,02,17,6.70
2014,12,19,02,18,6.80
2014,12,19,02,19,6.80
2014,12,19,02,20,6.80
2014,12,19,02,21,6.90
2014,12,19,02,22,6.90
2014,12,19,02,23,6.90
2014,12,19,02,24,6.90
2014,12,19,02,25,6.90
2014,12,19,02,26,6.90
2014,12,19,02,27,6.90
2014,12,19,02,28,6.90
2014,12,19,02,29,6.90
2014,12,19,02,30,6.90
2014,12,19,02,31,6.90
2014,12,19,02,32,6.90
2014,12,19,02,33,6.90
2014,12,19,02,34,6.90
2014,12,19,02,35,6.90
2014,12,19,02,36,6.90
2014,12,19,02,37,6.90
2014,12,19,02,38,6.90
2014,12,19,02,39,7.00
2014,12,19,02,40,7.00
2014,12,19,02,41,7.00
2014,12,19,02,42,7.00
2014,12,19,02,43,7.10
2014,12,19,02,44,7.10
2014,12,19,02,45,7.10
2014,12,19,02,46,7.20
2014,12,19,02,47,7.20
2014,12,19,02,48,7.20
2014,12,19,02,49,7.20
2014,12,19,02,50,7.20
2014,12,19,02,51,7.20
2014,12,19,02,52,7.20
2014,12,19,02,53,7.20
2014,12,19,02,54,7.20
2014,12,19,02,55,7.20
2014,12,19,02,56,7.20
2014,12,19,02,57,7.20
2014,12,19,02,58,7.20
2014,12,19,02,59,7.20
2014,12,19,03,00,7.10
2014,12,19,03,01,7.10
2014,12,19,03,02,7.10
2014,12,19,03,03,7.10
2014,12,19,11,04,7.10
2014,12,19,11,05,7.10
2014,12,19,11,06,7.10
2014,12,19,11,07,7.10
2014,12,19,11,08,7.10
2014,12,19,11,09,7.10
2014,12,19,11,10,7.10
2014,12,19,11,11,7.10
2014,12,19,11,12,7.10
2014,12,19,11,13,7.10
2014,12,19,11,14,7.10
2014,12,19,11,15,7.10
2014,12,19,11,16,7.10
2014,12,19,11,17,7.10
2014,12,19,11,18,7.10
2014,12,19,11,19,7.10
2014,12,19,11,20,7.10
2014,12,19,11,21,7.20
2014,12,19,11,22,7.10
2014,12,19,11,23,7.20
2014,12,19,11,24,7.20
2014,12,19,11,25,7.20
2014,12,19,11,26,7.20
2014,12,19,11,27,7.20
2014,12,19,11,28,7.20
2014,12,19,11,29,7.20
2014,12,19,11,30,7.20
2014,12,19,11,31,7.20
2014,12,19,11,32,7.20
2014,12,19,11,33,7.20
2014,12,19,11,34,7.20
2014,12,19,11,35,7.20
2014,12,19,11,36,7.20
2014,12,19,11,37,7.20
2014,12,19,11,38,7.20
2014,12,19,11,39,7.30
2014,12,19,11,40,7.30
2014,12,19,11,41,7.30
2014,12,19,11,42,7.30
2014,12,19,11,43,7.30
2014,12,19,11,44,7.30
2014,12,19,11,45,7.30
2014,12,19,11,46,7.30
2014,12,19,11,47,7.30
2014,12,19,11,48,7.30
2014,12,19,11,49,7.30
2014,12,19,11,50,7.30
2014,12,19,11,51,7.30
2014,12,19,11,52,7.30
2014,12,19,11,53,7.30
2014,12,19,11,54,7.30
2014,12,19,11,55,7.30
2014,12,19,11,56,7.30
2014,12,19,11,57,7.30
2014,12,19,11,58,7.30
2014,12,19,11,59,7.30
2014,12,19,12,00,7.30
2014,12,19,12,01,7.30
2014,12,19,12,02,7.30
2014,12,19,12,03,7.30
2014,12,19,12,04,7.30
2014,12,19,12,05,7.30
2014,12,19,12,06,7.30
2014,12,19,12,07,7.30
2014,12,19,12,08,7.20
2014,12,19,12,09,7.20
2014,12,19,12,10,7.20
2014,12,19,12,11,7.20
2014,12,19,12,12,7.20
2014,12,19,12,13,7.20
2014,12,19,12,14,7.20
2014,12,19,12,15,7.20
2014,12,19,12,16,7.20
2014,12,19,12,17,7.20
2014,12,19,12,18,7.20
2014,12,19,12,19,7.20
2014,12,19,12,20,7.20
2014,12,19,12,21,7.20
2014,12,19,12,22,7.20
2014,12,19,12,23,7.20
2014,12,19,12,24,7.20
2014,12,19,12,25,7.20
2014,12,19,12,26,7.20
2014,12,19,12,27,7.20
2014,12,19,12,28,7.20
2014,12,19,12,29,7.20
2014,12,19,12,30,7.20
2014,12,19,12,31,7.20
2014,12,19,12,32,7.20
2014,12,19,12,33,7.20
2014,12,19,12,34,7.20
2014,12,19,12,35,7.20
2014,12,19,12,36,7.20
2014,12,19,12,37,7.20
2014,12,19,12,38,7.20
2014,12,19,12,39,7.20
2014,12,19,12,40,7.20
2014,12,19,12,41,7.20
2014,12,19,12,42,7.20
2014,12,19,12,43,7.30
2014,12,19,12,44,7.30
2014,12,19,12,45,7.30
2014,12,19,12,46,7.30
2014,12,19,12,47,7.30
2014,12,19,12,48,7.30
2014,12,19,12,49,7.30
2014,12,19,12,50,7.30
2014,12,19,12,51,7.30
2014,12,19,12,52,7.30
2014,12,19,12,53,7.40
2014,12,19,12,54,7.40
2014,12,19,12,55,7.40
2014,12,19,12,56,7.40
2014,12,19,12,57,7.40
2014,12,19,12,58,7.40
2014,12,19,12,59,7.40
2014,12,19,13,00,7.40
2014,12,19,13,01,7.40
2014,12,19,13,02,7.40
2014,12,19,13,03,7.40
2014,12,19,13,04,7.40
2014,12,19,13,05,7.40
2014,12,19,13,06,7.40
2014,12,19,13,07,7.40
2014,12,19,13,08,7.40
2014,12,19,13,09,7.40
2014,12,19,13,10,7.40
2014,12,19,13,11,7.40
2014,12,19,13,12,7.40
2014,12,19,13,13,7.40
2014,12,19,13,14,7.40
2014,12,19,13,15,7.40
2014,12,19,13,16,7.40
2014,12,19,13,17,7.40
2014,12,19,13,18,7.40
2014,12,19,13,19,7.40
2014,12,19,13,20,7.30
2014,12,19,13,21,7.30
2014,12,19,13,22,7.30
2014,12,19,13,23,7.30
2014,12,19,13,24,7.20
2014,12,19,13,25,7.20
2014,12,19,13,26,7.20
2014,12,19,13,27,7.20
2014,12,19,13,28,7.20
2014,12,19,13,29,7.20
2014,12,19,13,30,7.20
2014,12,19,13,31,7.20
2014,12,19,13,32,7.20
2014,12,19,13,33,7.20
2014,12,19,13,34,7.20
2014,12,19,13,35,7.20
2014,12,19,13,36,7.20
2014,12,19,13,37,7.20
2014,12,19,13,38,7.20
2014,12,19,13,39,7.20
2014,12,19,13,40,7.20
2014,12,19,13,41,7.20
2014,12,19,13,42,7.20
2014,12,19,13,43,7.20
2014,12,19,13,44,7.20
2014,12,19,13,45,7.20
2014,12,19,13,46,7.10
2014,12,19,13,47,7.10
2014,12,19,13,48,7.10
2014,12,19,13,49,7.10
2014,12,19,13,50,7.10
2014,12,19,13,51,7.10
2014,12,19,13,52,7.10
2014,12,19,13,53,7.10
2014,12,19,13,54,7.10
2014,12,19,13,55,7.20
2014,12,19,13,56,7.20
2014,12,19,13,57,7.20
2014,12,19,13,58,7.20
2014,12,19,13,59,7.20
2014,12,19,14,00,7.20
2014,12,19,14,01,7.20
2014,12,19,14,02,7.20
2014,12,19,14,03,7.20
2014,12,19,14,04,7.20
2014,12,19,14,05,7.20
2014,12,19,14,06,7.20
2014,12,19,14,07,7.20
2014,12,19,14,08,7.20
2014,12,19,14,09,7.20
2014,12,19,14,10,7.20
2014,12,19,14,11,7.10
2014,12,19,14,12,7.10
2014,12,19,14,13,7.10
2014,12,19,14,14,7.10
2014,12,19,14,15,7.10
2014,12,19,14,16,7.10
2014,12,19,14,17,7.10
2014,12,19,14,18,7.10
2014,12,19,14,19,7.10
2014,12,19,14,20,7.10
2014,12,19,14,21,7.10
2014,12,19,14,22,7.10
2014,12,19,14,23,7.10
2014,12,19,14,24,7.20
2014,12,19,14,25,7.20
2014,12,19,14,26,7.20
2014,12,19,14,27,7.20
2014,12,19,14,28,7.20
2014,12,19,14,29,7.20
2014,12,19,14,30,7.20
2014,12,19,14,31,7.30
2014,12,19,14,32,7.30
2014,12,19,14,33,7.30
2014,12,19,14,34,7.30
2014,12,19,14,35,7.40
2014,12,19,14,36,7.40
2014,12,19,14,37,7.40
2014,12,19,14,38,7.40
2014,12,19,14,39,7.40
2014,12,19,14,40,7.50
2014,12,19,14,41,7.50
2014,12,19,14,42,7.50
2014,12,19,14,43,7.50
2014,12,19,14,44,7.50
2014,12,19,14,45,7.60
2014,12,19,14,46,7.60
2014,12,19,14,47,7.60
2014,12,19,14,48,7.60
2014,12,19,14,49,7.60
2014,12,19,14,50,7.60
2014,12,19,14,51,7.60
2014,12,19,14,52,7.60
2014,12,19,14,53,7.60
2014,12,19,14,54,7.60
2014,12,19,14,55,7.60
2014,12,19,14,56,7.70
2014,12,19,14,57,7.70
2014,12,19,14,58,7.70
2014,12,19,14,59,7.70
2014,12,19,15,00,7.70
2014,12,19,15,01,7.70
2014,12,19,15,02,7.70
2014,12,19,15,03,7.70
2014,12,19,15,04,7.70
2014,12,19,15,05,7.70
2014,12,19,15,06,7.70
2014,12,19,15,07,7.70
2014,12,19,15,08,7.70
2014,12,19,15,09,7.70
2014,12,19,15,10,7.70
2014,12,19,15,11,7.70
2014,12,19,15,12,7.70
2014,12,19,15,13,7.60
2014,12,19,15,14,7.60
2014,12,19,15,15,7.60
2014,12,19,15,16,7.50
2014,12,19,15,17,7.50
2014,12,19,15,18,7.50
2014,12,19,15,19,7.50
2014,12,19,15,20,7.50
2014,12,19,15,21,7.40
2014,12,19,15,22,7.40
2014,12,19,15,23,7.40
2014,12,19,15,24,7.40
2014,12,19,15,25,7.40
2014,12,19,15,26,7.40
2014,12,19,15,27,7.40
2014,12,19,15,28,7.40
2014,12,19,15,29,7.40
2014,12,19,15,30,7.40
2014,12,19,15,31,7.40
2014,12,19,15,32,7.40
2014,12,19,15,33,7.40
2014,12,19,15,34,7.40
2014,12,19,15,35,7.40
2014,12,19,15,36,7.40
2014,12,19,15,37,7.40
2014,12,19,15,38,7.40
2014,12,19,15,39,7.40
2014,12,19,15,40,7.40
2014,12,19,15,41,7.40
2014,12,19,15,42,7.40
2014,12,19,15,43,7.40
2014,12,19,15,44,7.40
2014,12,19,15,45,7.40
2014,12,19,15,46,7.40
2014,12,19,15,47,7.40
2014,12,19,15,48,7.40
2014,12,19,15,49,7.40
2014,12,19,15,50,7.40
2014,12,19,15,51,7.40
2014,12,19,15,52,7.40
2014,12,19,15,53,7.40
2014,12,19,15,54,7.40
2014,12,19,15,55,7.40
2014,12,19,15,56,7.40
2014,12,19,15,57,7.40
2014,12,19,15,58,7.40
2014,12,19,15,59,7.50
2014,12,19,16,00,7.40
2014,12,19,16,01,7.40
2014,12,19,16,02,7.50
2014,12,19,16,03,7.40
2014,12,19,16,04,7.50
2014,12,19,16,05,7.50
2014,12,19,16,06,7.40
2014,12,19,16,07,7.40
2014,12,19,16,08,7.50
2014,12,19,16,09,7.50
2014,12,19,16,10,7.50
2014,12,19,16,11,7.50
2014,12,19,16,12,7.50
2014,12,19,16,13,7.50
2014,12,19,16,14,7.50
2014,12,19,16,15,7.50
2014,12,19,16,16,7.50
2014,12,19,16,17,7.50
2014,12,19,16,18,7.50
2014,12,19,16,19,7.40
2014,12,19,16,20,7.40
2014,12,19,16,21,7.40
2014,12,19,16,22,7.40
2014,12,19,16,23,7.40
2014,12,19,16,24,7.40
2014,12,19,16,25,7.40
2014,12,19,16,26,7.40
2014,12,19,16,27,7.40
2014,12,19,16,28,7.40
2014,12,19,16,29,7.40
2014,12,19,16,30,7.40
2014,12,19,16,31,7.30
2014,12,19,16,32,7.30
2014,12,19,16,33,7.30
2014,12,19,16,34,7.30
2014,12,19,16,35,7.30
2014,12,19,16,36,7.30
2014,12,19,16,37,7.30
2014,12,19,16,38,7.20
2014,12,19,16,39,7.20
2014,12,19,16,40,7.20
2014,12,19,16,41,7.20
2014,12,19,16,42,7.20
2014,12,19,16,43,7.10
2014,12,19,16,44,7.10
2014,12,19,16,45,7.10
2014,12,19,16,46,7.10
2014,12,19,16,47,7.10
2014,12,19,16,48,7.10
2014,12,19,16,49,7.00
2014,12,19,16,50,7.00
2014,12,19,16,51,7.00
2014,12,19,16,52,7.00
2014,12,19,16,53,7.00
2014,12,19,16,54,7.00
2014,12,19,16,55,7.00
2014,12,19,16,56,7.00
2014,12,19,16,57,7.00
2014,12,19,16,58,7.00
2014,12,19,16,59,7.00
2014,12,19,17,00,7.00
2014,12,19,17,01,7.00
2014,12,19,17,02,7.00
2014,12,19,17,03,7.00
2014,12,19,17,04,7.00
2014,12,19,17,05,7.00
2014,12,19,17,06,7.00
2014,12,19,17,07,7.00
2014,12,19,17,08,7.00
2014,12,19,17,09,7.00
2014,12,19,17,10,7.00
2014,12,19,17,11,6.90
2014,12,19,17,12,6.90
2014,12,19,17,13,6.90
2014,12,19,17,14,6.90
2014,12,19,17,15,6.80
2014,12,19,17,16,6.80
2014,12,19,17,17,6.80
2014,12,19,17,18,6.80
2014,12,19,17,19,6.80
2014,12,19,17,20,6.80
2014,12,19,17,21,6.80
2014,12,19,17,22,6.80
2014,12,19,17,23,6.70
2014,12,19,17,24,6.70
2014,12,19,17,25,6.70
2014,12,19,17,26,6.70
2014,12,19,17,27,6.70
2014,12,19,17,28,6.70
2014,12,19,17,29,6.70
2014,12,19,17,30,6.70
2014,12,19,17,31,6.60
2014,12,19,17,32,6.60
2014,12,19,17,33,6.60
2014,12,19,17,34,6.60
2014,12,19,17,35,6.60
2014,12,19,17,36,6.60
2014,12,19,17,37,6.60
2014,12,19,17,38,6.60
2014,12,19,17,39,6.60
2014,12,19,17,40,6.60
2014,12,19,17,41,6.60
2014,12,19,17,42,6.60
2014,12,19,17,43,6.60
2014,12,19,17,44,6.60
2014,12,19,17,45,6.70
2014,12,19,17,46,6.70
2014,12,19,17,47,6.70
2014,12,19,17,48,6.70
2014,12,19,17,49,6.70
2014,12,19,17,50,6.80
2014,12,19,17,51,6.80
2014,12,19,17,52,6.80
2014,12,19,17,53,6.80
2014,12,19,17,54,6.80
2014,12,19,17,55,6.80
2014,12,19,17,56,6.80
2014,12,19,17,57,6.90
2014,12,19,17,58,6.90
2014,12,19,17,59,6.90
2014,12,19,18,00,6.90
2014,12,19,18,01,6.90
2014,12,19,18,02,6.90
2014,12,19,18,03,6.90
2014,12,19,18,04,6.90
2014,12,19,18,05,6.90
2014,12,19,18,06,6.90
2014,12,19,18,07,6.90
2014,12,19,18,08,6.90
2014,12,19,18,09,6.90
2014,12,19,18,10,6.90
2014,12,19,18,11,6.90
2014,12,19,18,12,6.90
2014,12,19,18,13,6.90
2014,12,19,18,14,6.90
2014,12,19,18,15,6.90
2014,12,19,18,16,6.90
2014,12,19,18,17,6.90
2014,12,19,18,18,6.90
2014,12,19,18,19,7.00
2014,12,19,18,20,7.00
2014,12,19,18,21,7.00
2014,12,19,18,22,7.00
2014,12,19,18,23,7.00
2014,12,19,18,24,7.00
2014,12,19,18,25,7.00
2014,12,19,18,26,7.00
2014,12,19,18,27,7.10
2014,12,19,18,28,7.10
2014,12,19,18,29,7.10
2014,12,19,18,30,7.10
2014,12,19,18,31,7.20
2014,12,19,18,32,7.20
2014,12,19,18,33,7.20
2014,12,19,18,34,7.20
2014,12,19,18,35,7.30
2014,12,19,18,36,7.30
2014,12,19,18,37,7.30
2014,12,19,18,38,7.30
2014,12,19,18,39,7.30
2014,12,19,18,40,7.30
2014,12,19,18,41,7.30
2014,12,19,18,42,7.30
2014,12,19,18,43,7.30
2014,12,19,18,44,7.40
2014,12,19,18,45,7.40
2014,12,19,18,46,7.40
2014,12,19,18,47,7.40
2014,12,19,18,48,7.40
2014,12,19,18,49,7.40
2014,12,19,18,50,7.40
2014,12,19,18,51,7.40
2014,12,19,18,52,7.40
2014,12,19,18,53,7.40
2014,12,19,18,54,7.50
2014,12,19,18,55,7.50
2014,12,19,18,56,7.50
2014,12,19,18,57,7.50
2014,12,19,18,58,7.50
2014,12,19,18,59,7.50
2014,12,19,19,00,7.50
2014,12,19,19,01,7.60
2014,12,19,19,02,7.60
2014,12,19,19,03,7.60
2014,12,19,19,04,7.60
2014,12,19,19,05,7.60
2014,12,19,19,06,7.60
2014,12,19,19,07,7.60
2014,12,19,19,08,7.60
2014,12,19,19,09,7.60
2014,12,19,19,10,7.60
2014,12,19,19,11,7.60
2014,12,19,19,12,7.70
2014,12,19,19,13,7.70
2014,12,19,19,14,7.70
2014,12,19,19,15,7.70
2014,12,19,19,16,7.70
2014,12,19,19,17,7.60
2014,12,19,19,18,7.60
2014,12,19,19,19,7.60
2014,12,19,19,20,7.60
2014,12,19,19,21,7.60
2014,12,19,19,22,7.50
2014,12,19,19,23,7.50
2014,12,19,19,24,7.50
2014,12,19,19,25,7.50
2014,12,19,19,26,7.40
2014,12,19,19,27,7.40
2014,12,19,19,28,7.40
2014,12,19,19,29,7.40
2014,12,19,19,30,7.30
2014,12,19,19,31,7.30
2014,12,19,19,32,7.30
2014,12,19,19,33,7.30
2014,12,19,19,34,7.30
2014,12,19,19,35,7.20
2014,12,19,19,36,7.20
2014,12,19,19,37,7.20
2014,12,19,19,38,7.20
2014,12,19,19,39,7.10
2014,12,19,19,40,7.10
2014,12,19,19,41,7.10
2014,12,19,19,42,7.10
2014,12,19,19,43,7.10
2014,12,19,19,44,7.10
2014,12,19,19,45,7.00
2014,12,19,19,46,7.00
2014,12,19,19,47,7.00
2014,12,19,19,48,6.90
2014,12,19,19,49,6.90
2014,12,19,19,50,6.90
2014,12,19,19,51,6.90
2014,12,19,19,52,6.90
2014,12,19,19,53,6.90
2014,12,19,19,54,6.90
2014,12,19,19,55,6.90
2014,12,19,19,56,6.80
2014,12,19,19,57,6.80
2014,12,19,19,58,6.80
2014,12,19,19,59,6.80
2014,12,19,20,00,6.80
2014,12,19,20,01,6.90
2014,12,19,20,02,6.80
2014,12,19,20,03,6.90
2014,12,19,20,04,6.80
2014,12,19,20,05,6.80
2014,12,19,20,06,6.80
2014,12,19,20,07,6.80
2014,12,19,20,08,6.80
2014,12,19,20,09,6.90
2014,12,19,20,10,6.90
2014,12,19,20,11,6.90
2014,12,19,20,12,6.90
2014,12,19,20,13,7.00
2014,12,19,20,14,7.00
2014,12,19,20,15,7.00
2014,12,19,20,16,7.10
2014,12,19,20,17,7.10
2014,12,19,20,18,7.20
2014,12,19,20,19,7.20
2014,12,19,20,20,7.20
2014,12,19,20,21,7.20
2014,12,19,20,22,7.20
2014,12,19,20,23,7.30
2014,12,19,20,24,7.30
2014,12,19,20,25,7.30
2014,12,19,20,26,7.30
2014,12,19,20,27,7.40
2014,12,19,20,28,7.40
2014,12,19,20,29,7.40
2014,12,19,20,30,7.40
2014,12,19,20,31,7.40
2014,12,19,20,32,7.50
2014,12,19,20,33,7.50
2014,12,19,20,34,7.50
2014,12,19,20,35,7.50
2014,12,19,20,36,7.60
2014,12,19,20,37,7.60
2014,12,19,20,38,7.60
2014,12,19,20,39,7.60
2014,12,19,20,40,7.60
2014,12,19,20,41,7.70
2014,12,19,20,42,7.70
2014,12,19,20,43,7.70
2014,12,19,20,44,7.70
2014,12,19,20,45,7.70
2014,12,19,20,46,7.70
2014,12,19,20,47,7.70
2014,12,19,20,48,7.70
2014,12,19,20,49,7.70
2014,12,19,20,50,7.70
2014,12,19,20,51,7.70
2014,12,19,20,52,7.70
2014,12,19,20,53,7.70
2014,12,19,20,54,7.70
2014,12,19,20,55,7.70
2014,12,19,20,56,7.70
2014,12,19,20,57,7.70
2014,12,19,20,58,7.70
2014,12,19,20,59,7.70
2014,12,19,21,00,7.70
2014,12,19,21,01,7.70
2014,12,19,21,02,7.80
2014,12,19,21,03,7.80
2014,12,19,21,04,7.80
2014,12,19,21,05,7.80
2014,12,19,21,06,7.80
2014,12,19,21,07,7.80
2014,12,19,21,08,7.80
2014,12,19,21,09,7.80
2014,12,19,21,10,7.80
2014,12,19,21,11,7.80
2014,12,19,21,12,7.80
2014,12,19,21,13,7.80
2014,12,19,21,14,7.80
2014,12,19,21,15,7.80
2014,12,19,21,16,7.80
2014,12,19,21,17,7.80
2014,12,19,21,18,7.80
2014,12,19,21,19,7.90
2014,12,19,21,20,7.90
2014,12,19,21,21,7.90
2014,12,19,21,22,7.90
2014,12,19,21,23,7.90
2014,12,19,21,24,7.90
2014,12,19,21,25,7.90
2014,12,19,21,26,7.90
2014,12,19,21,27,7.90
2014,12,19,21,28,7.90
2014,12,19,21,29,7.90
2014,12,19,21,30,7.90
2014,12,19,21,31,7.90
2014,12,19,21,32,7.90
2014,12,19,21,33,7.90
2014,12,19,21,34,7.90
2014,12,19,21,35,7.90
2014,12,19,21,36,7.90
2014,12,19,21,37,7.90
2014,12,19,21,38,7.90
2014,12,19,21,39,7.90
2014,12,19,21,40,7.90
2014,12,19,21,41,7.90
2014,12,19,21,42,7.90
2014,12,19,21,43,7.90
2014,12,19,21,44,7.90
2014,12,19,21,45,7.90
2014,12,19,21,46,7.90
2014,12,19,21,47,7.90
2014,12,19,21,48,7.90
2014,12,19,21,49,7.90
2014,12,19,21,50,7.90
2014,12,19,21,51,7.90
2014,12,19,21,52,7.90
2014,12,19,21,53,7.90
2014,12,19,21,54,7.90
2014,12,19,21,55,7.90
2014,12,19,21,56,7.90
2014,12,19,21,57,7.90
2014,12,19,21,58,7.90
2014,12,19,21,59,8.00
2014,12,19,22,00,8.00
2014,12,19,22,01,8.00
2014,12,19,22,02,8.00
2014,12,19,22,03,8.00
2014,12,19,22,04,8.00
2014,12,19,22,05,8.00
2014,12,19,22,06,8.00
2014,12,19,22,07,7.90
2014,12,19,22,08,7.90
2014,12,19,22,09,8.00
2014,12,19,22,10,8.00
2014,12,19,22,11,8.00
2014,12,19,22,12,8.00
2014,12,19,22,13,8.00
2014,12,19,22,14,8.00
2014,12,19,22,15,8.00
2014,12,19,22,16,8.00
2014,12,19,22,17,8.00
2014,12,19,22,18,8.00
2014,12,19,22,19,8.00
2014,12,19,22,20,8.00
2014,12,19,22,21,8.00
2014,12,19,22,22,8.00
2014,12,19,22,23,8.00
2014,12,19,22,24,8.00
2014,12,19,22,25,8.00
2014,12,19,22,26,8.00
2014,12,19,22,27,8.00
2014,12,19,22,28,8.00
2014,12,19,22,29,8.00
2014,12,19,22,30,8.00
2014,12,19,22,31,8.00
2014,12,19,22,32,8.00
2014,12,19,22,33,8.00
2014,12,19,22,34,8.00
2014,12,19,22,35,8.00
2014,12,19,22,36,8.00
2014,12,19,22,37,8.10
2014,12,19,22,38,8.10
2014,12,19,22,39,8.10
2014,12,19,22,40,8.10
2014,12,19,22,41,8.10
2014,12,19,22,42,8.10
2014,12,19,22,43,8.10
2014,12,19,22,44,8.10
2014,12,19,22,45,8.10
2014,12,19,22,46,8.10
2014,12,19,22,47,8.10
2014,12,19,22,48,8.10
2014,12,19,22,49,8.00
2014,12,19,22,50,8.00
2014,12,19,22,51,8.00
2014,12,19,22,52,8.00
2014,12,19,22,53,8.00
2014,12,19,22,54,8.00
2014,12,19,22,55,8.00
2014,12,19,22,56,8.00
2014,12,19,22,57,8.00
2014,12,19,22,58,8.00
2014,12,19,22,59,8.00
2014,12,19,23,00,8.00
2014,12,19,23,01,8.00
2014,12,19,23,02,8.00
2014,12,19,23,03,8.00
2014,12,19,23,04,8.00
2014,12,19,23,05,7.90
2014,12,19,23,06,7.90
2014,12,19,23,07,7.90
2014,12,19,23,08,8.00
2014,12,19,23,09,7.90
2014,12,19,23,10,7.90
2014,12,19,23,11,7.90
2014,12,19,23,12,7.90
2014,12,19,23,13,7.90
2014,12,19,23,14,7.90
2014,12,19,23,15,7.90
2014,12,19,23,16,7.90
2014,12,19,23,17,7.90
2014,12,19,23,18,7.90
2014,12,19,23,19,7.90
2014,12,19,23,20,7.90
2014,12,19,23,21,7.90
2014,12,19,23,22,7.90
2014,12,19,23,23,7.90
2014,12,19,23,24,7.90
2014,12,19,23,25,7.90
2014,12,19,23,26,7.90
2014,12,19,23,27,7.80
2014,12,19,23,28,7.80
2014,12,19,23,29,7.80
2014,12,19,23,30,7.80
2014,12,19,23,31,7.80
2014,12,19,23,32,7.80
2014,12,19,23,33,7.80
2014,12,19,23,34,7.80
2014,12,19,23,35,7.80
2014,12,19,23,36,7.80
2014,12,19,23,37,7.80
2014,12,19,23,38,7.80
2014,12,19,23,39,7.80
2014,12,19,23,40,7.80
2014,12,19,23,41,7.80
2014,12,19,23,42,7.80
2014,12,19,23,43,7.80
2014,12,19,23,44,7.80
2014,12,19,23,45,7.80
2014,12,19,23,46,7.80
2014,12,19,23,47,7.80
2014,12,19,23,48,7.80
2014,12,19,23,49,7.80
2014,12,19,23,50,7.80
2014,12,19,23,51,7.80
2014,12,19,23,52,7.80
2014,12,19,23,53,7.80
2014,12,19,23,54,7.80
2014,12,19,23,55,7.80
2014,12,19,23,56,7.80
2014,12,19,23,57,7.80
2014,12,19,23,58,7.80
2014,12,19,23,59,7.80
